BREEZE-M R/B, 42909

Orbit data source: Space-Track

BREEZE-M R/B, 42909 is space debris in GEO originally from a launch on Wed, 16 Aug 2017 UTC launched from the Tyuratam Missile And Space Complex (TTMTR). Debris objects in space refer to the collection of defunct objects orbiting the Earth. Examples of debris include non-operational satellites, rocket bodies, and fragments generated from explosions, collisions, or faulty payload assembly.

Not visible in the next 10 days
Identifier
42909, 2017-046C
Orbit
GEO
Last TLE update
1 day ago
Origin
Manufacturer
Khrunichev
Mission
Spacecraft
Bus & Motor
BRIZ, Unknown motor
Mass
~1,600 kg wet, 1,600 kg dry
Launch date (UTC)
2017-08-16 (8 years ago)
Launch vehicle
Unknown
Launch site
Tyuratam Missile And Space Complex (TTMTR)
Object type
Payload
Rocket body
Debris
Shape & HBR
Cyl, 4 m
Radar Cross Section
14.451 m²

Expand to show TLE details & history

TLE from 1 day ago
0 BREEZE-M R/B
1 42909U 17046C   25182.03373407 -.00000195  00000-0  00000-0 0  9993
2 42909   7.6982  71.8453 0746215 153.1367 210.7906  0.90332929 25983
Epoch: 2025-07-01T00:48Z
TLE epoch observation values (Epoch: 2025-07-01T00:48:34.623Z)
Latitude
Longitude
140.29121°
Altitude
41,782.358 km
Speed
2.781 km/s
True Right ascension
04h 47m 04s
True Declination
0° 00' 00"
Sunlit
Object was in daylight at epoch
Visualization orbit readout
Latitude
2.18283°
Longitude
156.59678°
Altitude
41,164.161 km
Speed
2.82 km/s
Apparent Right ascension
05h 44m 22s
Apparent Declination
-2° 29' 09"
Sunlit
Object is in daylight
Visualization observer readout
Local Sidereal Time
16:26:02
Azimuth
329.596° NNW
Elevation
-48.57°
Doppler factor
1
Orbital elements
Apogee altitude
42,199.467 km
Perigee altitude
35,453.029 km
Semi-major axis
45,204.385 km
Eccentricity
0.07462
Inclination
7.6982°
RAAN
71.8453°
Arg. of periapsis
153.1367°
True anomaly
Unknown
Mean anomaly
210.7906°
Eccentric anomaly
Unknown
Mean motion
0.22583 °/min
Orbital period
1,594.15 mins
BSTAR
0
Loading historical data...
42909 neighbors
Loading maneuver chart data...
Loading SW <> Apogee altitude chart data...
Loading historical data...
Loading historical data...
Loading historical data...
Loading historical data...
Loading historical data...
Loading historical data...
Loading historical data...
Other satellites on launch #46 in the year 2017 (2017-08-16 UTC)

BREEZE-M R/B Visibility

Observer location: undefined°, undefined°

BREEZE-M R/B is likely not visible in the next few days
Span
Click to sort rows by Start time (UTC) header in descending order
Start Az.
Max El. time (UTC)
Max El. Az.
Max El.
End time (UTC)
End Az.
|